Newport, AR

9:58 AM CDT on August 20, 2019 (GMT -0500)
Newport

Weather History for KM19 - July, 2019

Change the Weather History Date:

Sunday, July 21, 2019

  Actual Average (WUND) Record (WUND)
Temperature  
Mean Temperature 85 °F -  
Max Temperature 93 °F - - (-1)
Min Temperature 77 °F - - (-1)
Cooling Degree Days 20    
Growing Degree Days 35 (Base 50)    
Moisture  
Dew Point 76 °F    
Average Humidity 79    
Maximum Humidity 96    
Minimum Humidity 54    
Precipitation  
Precipitation 0.00 in - - ()
Sea Level Pressure  
Sea Level Pressure 29.95 in    
Wind  
Wind Speed 7 mph (SSW)    
Max Wind Speed 12 mph    
Max Gust Speed -    
Visibility 10 miles    
Events      
Averages and records for this station are not official NWS values.
T = Trace of Precipitation, MM = Missing Value Source: NWS Daily Summary

Daily Weather History Graph

Daily Weather History Graph

Search for Another Location

Airport or City:

Astronomy

Jul. 21, 2019 Rise Set
Actual Time 6:04 AM CDT 8:17 PM CDT
Civil Twilight 5:35 AM CDT 8:46 PM CDT
Nautical Twilight 5:00 AM CDT 9:21 PM CDT
Astronomical Twilight 4:21 AM CDT 9:59 PM CDT
Moon 11:20 PM CDT (7/21) 10:17 AM CDT (7/21)
Length of Visible Light 15h 10m
Length of Day
14h 12m
Waning Gibbous, 80% of the Moon is Illuminated
Jul 21
Waning Gibbous
Jul 24
Last Quarter
Jul 31
New
Aug 7
First Quarter
Aug 15
Full

Hourly Weather History & Observations

Time (CDT) Temp. Heat Index Dew Point Humidity Pressure Visibility Wind Dir Wind Speed Gust Speed Precip Events Conditions
12:56 AM 79.0 °F - 77.0 °F 94% 29.95 in 10.0 mi South 5.8 mph - N/A   Clear
1:56 AM 79.0 °F - 77.0 °F 94% 29.96 in 10.0 mi South 4.6 mph - N/A   Clear
2:56 AM 78.1 °F - 77.0 °F 96% 29.96 in 10.0 mi SSW 4.6 mph - N/A   Clear
3:56 AM 77.0 °F - 75.9 °F 96% 29.95 in 9.0 mi South 8.1 mph - N/A   Clear
4:56 AM 77.0 °F - 75.9 °F 96% 29.96 in 9.0 mi South 5.8 mph - N/A   Clear
5:56 AM 77.0 °F - 75.9 °F 96% 29.99 in 9.0 mi SW 4.6 mph - N/A   Clear
6:56 AM 77.0 °F - 75.9 °F 96% 29.99 in 6.0 mi South 6.9 mph - N/A   Clear
7:19 AM 78.8 °F - 77.0 °F 94% 29.98 in 7.0 mi SSW 8.1 mph - N/A   Partly Cloudy
7:56 AM 80.1 °F 85.8 °F 77.0 °F 90% 29.99 in 9.0 mi SW 9.2 mph - N/A   Partly Cloudy
9:56 AM 84.9 °F 95.3 °F 77.0 °F 77% 29.99 in 10.0 mi SW 6.9 mph - N/A   Clear
10:56 AM 87.1 °F 98.8 °F 77.0 °F 72% 29.98 in 10.0 mi SW 5.8 mph - N/A   Scattered Clouds
11:56 AM 89.1 °F 98.0 °F 73.9 °F 61% 29.98 in 10.0 mi WSW 5.8 mph - N/A   Clear
12:56 PM 91.9 °F 103.9 °F 75.9 °F 59% 29.96 in 10.0 mi South 6.9 mph - N/A   Mostly Cloudy
1:56 PM 91.9 °F 101.3 °F 73.9 °F 55% 29.94 in 10.0 mi West 6.9 mph - N/A   Partly Cloudy
2:56 PM 93.0 °F 103.2 °F 73.9 °F 54% 29.94 in 10.0 mi South 6.9 mph - N/A   Partly Cloudy
3:56 PM 91.9 °F 103.9 °F 75.9 °F 59% 29.92 in 10.0 mi South 8.1 mph - N/A   Partly Cloudy
4:56 PM 91.9 °F 103.2 °F 75.0 °F 58% 29.92 in 10.0 mi South 8.1 mph - N/A   Clear
5:56 PM 91.9 °F 105.9 °F 77.0 °F 62% 29.91 in 10.0 mi SSE 5.8 mph - N/A   Partly Cloudy
6:56 PM 91.0 °F 102.9 °F 75.9 °F 61% 29.91 in 8.0 mi SSW 11.5 mph - N/A   Partly Cloudy
7:56 PM 87.1 °F 98.8 °F 77.0 °F 72% 29.91 in 10.0 mi South 8.1 mph - N/A   Clear
8:56 PM 82.9 °F 91.8 °F 77.0 °F 82% 29.91 in 10.0 mi South 8.1 mph - N/A   Clear
9:56 PM 82.0 °F 91.0 °F 78.1 °F 88% 29.92 in 10.0 mi South 11.5 mph - N/A   Clear
10:56 PM 81.0 °F 88.6 °F 78.1 °F 91% 29.93 in 10.0 mi South 10.4 mph - N/A   Clear
11:56 PM 80.1 °F 85.4 °F 75.9 °F 87% 29.93 in 10.0 mi SSW 10.4 mph - N/A   Clear